Orbital Elements at Epoch 2459000.5 (2020-May-31.0) TDB
Reference: JPL 14 (heliocentric ecliptic J2000)
Element | Value | Uncertainty (1-sigma) | Units |
e | .1513546987058282 | 7.6224e-08 | |
a | 2.61163370658801 | 5.3418e-08 | au |
q | 2.216350673797396 | 1.8455e-07 | au |
i | 10.62959664774124 | 7.4265e-06 | deg |
node | 269.7208738085723 | 3.471e-05 | deg |
peri | 348.0000297956117 | 4.5335e-05 | deg |
M | 91.06356487886828 | 3.8056e-05 | deg |
tp | 2458610.549957986824 (2019-May-07.04995799) | 0.00015402 | TDB |
period | 1541.58268799907 4.22 | 4.7297e-05 1.295e-07 | d yr |
n | .233526234306166 | 7.1647e-09 | deg/d |
Q | 3.006916739378624 | 6.1503e-08 | au |
|
| | Orbit Determination Parameters
Additional Information
|